Location: Ripley
(48.3812°N, 115.4473°W)
Time: 08:12:42
(UTC+00:00)

UKube-1 - Visible Passes

Search period start: 25 June 2022 00:00
Search period end: 05 July 2022 00:00
Orbit: 610 x 614 km, 98.4° (Epoch: 24 June)

Date Brightness Start Highest point End Pass type
(mag) Time Alt. Az. Time Alt. Az. Time Alt. Az.
25 Jun ? 04:31:38 10° NE 04:34:05 15° E 04:36:31 10° SE visible
25 Jun ? 06:06:08 10° N 06:10:25 65° WNW 06:14:00 14° SSW visible
26 Jun ? 04:45:51 10° NE 04:49:03 20° E 04:52:00 11° SE visible
26 Jun ? 06:21:04 10° N 06:25:12 46° WNW 06:29:00 12° SW visible
27 Jun ? 05:00:18 10° NE 05:04:01 27° E 05:07:00 14° SSE visible
27 Jun ? 06:36:03 10° N 06:39:57 34° WNW 06:43:49 10° SW visible
28 Jun ? 05:14:54 10° NNE 05:18:56 38° E 05:21:58 16° SSE visible
28 Jun ? 06:51:07 10° N 06:54:40 25° WNW 06:58:12 10° WSW visible
29 Jun ? 05:29:35 10° NNE 05:33:49 53° E 05:36:56 17° S visible
29 Jun ? 07:06:17 10° NNW 07:09:22 19° WNW 07:12:25 10° WSW visible
30 Jun ? 05:44:21 10° NNE 05:48:40 75° ESE 05:51:54 17° S visible
30 Jun ? 07:21:37 10° NNW 07:24:01 15° WNW 07:26:24 10° W visible
01 Jul ? 04:25:19 10° ENE 04:27:02 12° E 04:28:44 10° ESE visible
01 Jul ? 05:59:10 10° NNE 06:03:29 79° WNW 06:06:52 16° SSW visible
01 Jul ? 07:37:24 10° NW 07:38:38 11° NW 07:39:52 10° WNW visible
02 Jul ? 04:39:12 10° NE 04:42:01 17° E 04:44:48 10° SE visible
02 Jul ? 06:14:02 10° N 06:18:16 56° WNW 06:21:49 14° SSW visible
03 Jul ? 04:53:31 10° NE 04:56:58 23° E 04:59:47 13° SE visible
03 Jul ? 06:28:58 10° N 06:33:01 40° WNW 06:36:46 11° SW visible
04 Jul ? 05:08:01 10° NNE 05:11:53 31° E 05:14:43 16° SSE visible
04 Jul ? 06:43:58 10° N 06:47:44 30° WNW 06:51:28 10° SW visible
